Location: Poughquag
(41.6090°N, 73.6820°W)
Time: 14:57:59
(UTC-04:00)

Explorer 11/Cluster Stage 4 - Pass Details

Date: 31 May 2020
Orbit: 467 x 1259 km, 28.8° (Epoch: 05 July)

Event Time Altitude Azimuth Distance (km) Brightness Sun altitude
Rises 06:55:59 0° 227° (SW) 3,527 9.4 15.0°
Reaches altitude 10° 06:58:56 10° 214° (SW) 2,721 9.0 15.6°
Maximum altitude 07:04:09 24° 163° (SSE) 2,084 8.9 16.5°
Drops below altitude 10° 07:10:02 10° 114° (ESE) 3,107 10.6 17.6°
Sets 07:13:39 0° 102° (ESE) 4,146 11.4 18.2°
